This is the latest recevied weather packets stored in our database for station/object WA0LM. If no packets are shown the sender has not sent any weather packets the latest 10 day(s).
| Time | Temp. | Humidity | Pressure | Rain* | Wind** | Luminosity | Snow |
|---|---|---|---|---|---|---|---|
| 1777394859 | 7.22° C | 50% | 1014.4 hPa | 0 mm | - | 448 W/m² | - |
| 1777394554 | 7.22° C | 55% | 1014.5 hPa | 0 mm | - | 397 W/m² | - |
| 1777394252 | 7.22° C | 52% | 1014.3 hPa | 0 mm | - | 389 W/m² | - |
| 1777393948 | 7.22° C | 56% | 1014.4 hPa | 0 mm | - | 447 W/m² | - |
| 1777393647 | 7.22° C | 52% | 1014.5 hPa | 0 mm | - | 338 W/m² | - |
| 1777393342 | 7.22° C | 53% | 1014.4 hPa | 0 mm | - | 605 W/m² | - |
| 1777393039 | 6.67° C | 53% | 1014.5 hPa | 0 mm | - | 470 W/m² | - |
| 1777392735 | 7.22° C | 51% | 1014.6 hPa | 0 mm | - | 460 W/m² | - |
| 1777392432 | 7.22° C | 55% | 1014.5 hPa | 0 mm | - | 392 W/m² | - |
| 1777392127 | 6.67° C | 56% | 1014.4 hPa | 0 mm | - | 632 W/m² | - |
| 1777391822 | 6.67° C | 54% | 1014.5 hPa | 0 mm | - | 482 W/m² | - |
| 1777391518 | 6.67° C | 51% | 1014.5 hPa | 0 mm | - | 443 W/m² | - |
| 1777391214 | 6.67° C | 55% | 1014.5 hPa | 0 mm | - | 589 W/m² | - |
| 1777390910 | 6.67° C | 55% | 1014.6 hPa | 0 mm | - | 603 W/m² | - |
| 1777390608 | 6.67° C | 55% | 1014.5 hPa | 0 mm | - | 576 W/m² | - |
| 1777390304 | 6.67° C | 62% | 1014.4 hPa | 0 mm | - | 581 W/m² | - |
| 1777390000 | 6.11° C | 62% | 1014.4 hPa | 0 mm | - | 540 W/m² | - |
| 1777389697 | 6.11° C | 59% | 1014.3 hPa | 0 mm | - | 539 W/m² | - |
| 1777389393 | 6.11° C | 62% | 1014.2 hPa | 0 mm | - | 553 W/m² | - |
| 1777389091 | 6.11° C | 63% | 1014.2 hPa | 0 mm | - | 527 W/m² | - |
| 1777388789 | 6.11° C | 62% | 1014.1 hPa | 0 mm | - | 535 W/m² | - |
| 1777388486 | 6.11° C | 64% | 1014.1 hPa | 0 mm | - | 524 W/m² | - |
| 1777388181 | 6.11° C | 64% | 1014.1 hPa | 0 mm | - | 514 W/m² | - |
| 1777387876 | 5.56° C | 66% | 1014 hPa | 0 mm | - | 502 W/m² | - |
| 1777387573 | 5.56° C | 63% | 1014 hPa | 0 mm | - | 488 W/m² | - |
* Rain latest hour (hover to see other rain measurements)
** Current wind speed in m/s (hover to see current wind gust speed)